Tracking 25734 objects as of 27-May-2022
HD Live streaming from Space Station
objects crossing your sky now

ONEWEB-0305

Track ONEWEB-0305 now!
10-day predictions
ONEWEB-0305 is classified as:


NORAD ID: 49093
Int'l Code: 2021-075U
Perigee: 1,199.1 km
Apogee: 1,202.6 km
Inclination: 87.9 °
Period: 109.3 minutes
Semi major axis: 7571 km
RCS: Unknown
Launch date: August 21, 2021
Source: United Kingdom (UK)
Launch site: TYURATAM MISSILE AND SPACE COMPLEX (TTMTR)
aabbcc
Your satellite tracking list
Your tracking list is empty




NASA's NSSDC Master Catalog

Two Line Element Set (TLE):
1 49093U 21075U   22146.91667824  .00010557  00000-0  27127-1 0  9996
2 49093  87.9037 300.5368 0002268 104.7081 356.3687 13.17645314  1302
Source of the keplerian elements: AFSPC